Regional Weather Roundup
Issued by NWS State College, PA

Home | Current Version | Previous Version | Graphics & Text | Print | Product List | Glossary Off
Versions: 1 2 3 4 5 6 7 8 9 10 11 12 13 14 15 16 17 18 19 20 21 22 23 24 25 26 27 28 29 30 31 32 33 34 35 36 37 38 39 40 41 42 43 44 45 46 47 48 49 50

000
ASUS41 KCTP 301110
RWRCTP

REGIONAL WEATHER ROUNDUP
NATIONAL WEATHER SERVICE STATE COLLEGE PA
600 AM EST FRI JAN 30 2015

Note: "fair" indicates few or no clouds below 12,000 feet with no
significant weather and/or obstructions to visibility.

* = STATION THAT DOES NOT REPORT PRECIPITATION /E.G. RAIN...SNOW...ETC/
    THUNDER OR FOG.

PAZ002>004-007>009-013>016-020>023-029>032-301200-
WESTERN PENNSYLVANIA

CITY           SKY/WX    TMP DP  RH WIND       PRES   REMARKS
ERIE           CLOUDY    24  19  81 W14G23    30.08R WCI  12
MEADVILLE      LGT SNOW  21  17  84 NW12G22   30.03R VSB 3/4 WCI   9
FRANKLIN*      MOCLDY    21  18  86 W10G18    30.03R WCI  10
NEW CASTLE     LGT SNOW  23  20  89 NW9G17    30.10R FOG     WCI  13
BEAVER COUNTY  NOT AVBL
BUTLER*        CLOUDY    27  21  80 W13       30.05R
PITTSBURGH INT LGT SNOW  28  23  81 NW15G25   30.05R
PITTSBURGH     CLOUDY    28  19  69 NW15G26   30.03R
INDIANA*       CLOUDY    28  27  93 NW15G21   30.01R FOG
LATROBE        LGT SNOW  28  28 100 W15       30.03R
WASHINGTON CO* CLOUDY    28  21  74 NW14G20   30.08R
$$

PAZ004>006-010>012-017>019-024>028-033>037-041-042-045-046-049>053-301200-
CENTRAL PENNSYLVANIA

CITY           SKY/WX    TMP DP  RH WIND       PRES   REMARKS
BRADFORD       LGT SNOW  24  19  81 NW14G23   29.89R WCI  12
DUBOIS         CLOUDY    26  23  88 W15       29.92R FOG     WCI  14
CLEARFIELD     LGT SNOW  28  23  81 NW12      29.92R
JOHNSTOWN      LGT SNOW  26  22  84 NW23G30   29.89S FOG     WCI  11
ALTOONA        FLURRIES  30  23  75 NW14      29.92S
STATE COLLEGE  LGT SNOW  28  25  86 W9        29.92R VSB 1
WILLIAMSPORT   LGT SNOW  28  25  88 NW3       29.89R FOG
SELINSGROVE    LGT SNOW  29  27  92 S5        29.91R FOG
FT INDIANTOWN  FLURRIES  31  26  79 W9G16     29.89S
CAPITAL CITY   LGT SNOW  31  26  82 W8        29.92R
HARRISBURG     LGT SNOW  31  26  82 NW8       29.91R
YORK           CLOUDY    34  25  69 NW10      29.91R
$$

PAZ038>040-043-044-047-048-054-055-060>062-067>071-301200-
EASTERN PENNSYLVANIA

CITY           SKY/WX    TMP DP  RH WIND       PRES   REMARKS
SCRANTON       LGT SNOW  28  23  81 SW8       29.84R
MOUNT POCONO   LGT SNOW  25  22  88 W12       29.75F FOG     WCI  14
ALLENTOWN      LGT SNOW  28  24  85 W5        29.87R FOG
QUAKERTOWN*    CLOUDY    28  25  86 NW3       29.86S
READING        CLOUDY    28  24  85 NW5       29.89R
LANCASTER      CLOUDY    28  24  85 W8        29.89S
COATESVILLE    MIX PCPN  32  28  86 NW14      29.88R
POTTSTOWN      CLOUDY    29  25  85 W7        29.88S
BLUE BELL      CLOUDY    32  27  80 W3        29.86S
DOYLESTOWN     CLOUDY    28  25  88 W7        29.85R
WILLOW GROVE   NOT AVBL
NORTH PHILA    CLOUDY    34  23  64 W9        29.88S
PHILADELPHIA   CLOUDY    35  24  64 W9        29.89R
$$


USA.gov is the U.S. government's official web portal to all federal, state and local government web resources and services.